THOR ABLESTAR DEB, 1943

Orbit data source: Space-Track

THOR ABLESTAR DEB, 1943 is space debris in LEO originally from a launch on Thu, 29 Jun 1961 UTC launched from the Air Force Eastern Test Range (AFETR). Debris objects in space refer to the collection of defunct objects orbiting the Earth. Examples of debris include non-operational satellites, rocket bodies, and fragments generated from explosions, collisions, or faulty payload assembly.

Loading next visibility...
Identifier
1943, 1961-015HT
Orbit
LEO
Country
Flag of USUS
Related business
Manufacturer
Unknown
Mission
Spacecraft
Bus & Motor
Unknown
Mass
Unknown
Launch date (UTC)
1961-06-29 (65 years ago)
Launch vehicle
Unknown
Launch site
Air Force Eastern Test Range (AFETR)
Object type
Payload
Rocket body
Debris
Shape & HBR
Unknown shape, 0.1 m
Radar Cross Section
Small (<0.1 m²)

Expand to show TLE details & history
Last TLE update: 16 hours ago

TLE from 16 hours ago
0 THOR ABLESTAR DEB
1 01943U 61015HT  26104.04583333  .00000605  00000-0  27435-3 0  9997
2 01943  66.8572 339.6565 0056930 334.3222  25.5051 14.27667470335005
Epoch: 2026-04-14T01:05Z
TLE epoch observation values (Epoch: 2026-04-14T01:05:59.999Z)
Latitude
-0.00004°
Longitude
120.92877°
Altitude
764.814 km
Speed
7.491 km/s
True Right ascension
22h 38m 37s
True Declination
0° 00' 00"
Sunlit
Object was in daylight at epoch
Visualization orbit readout
Latitude
Unknown
Longitude
Unknown
Altitude
Unknown
Speed
Unknown
Apparent Right ascension
Unknown
Apparent Declination
Unknown
Sunlit
N/A
Visualization observer readout
Local Sidereal Time
23:48:27
Azimuth
Unknown
Elevation
Unknown
Doppler factor
Unknown
Orbital elements
Apogee altitude
838.75 km
Perigee altitude
757.043 km
Semi-major axis
7,176.033 km
Eccentricity
0.00569
Inclination
66.8572°
RAAN
339.6565°
Arg. of periapsis
334.3222°
True anomaly
25.78782°
Mean anomaly
25.5051°
Eccentric anomaly
25.64628°
Mean motion
3.5704 °/min
Orbital period
100.83 mins
BSTAR
0.00027435
Loading maneuver chart data...
Computing Atmospheric mass density...

Documentation

Showing up to 5 results
|